Regional Weather Roundup
Issued by NWS

Home | Current Version | Previous Version | Graphics & Text | Print | Product List | Glossary On
Versions: 1 2 3 4 5 6 7 8 9 10 11 12 13 14 15 16 17 18 19 20 21 22 23 24 25 26 27 28
000
ASUS45 KTFX 231510
RWRMT
MONTANA REGIONAL WEATHER ROUNDUP
NATIONAL WEATHER SERVICE GREAT FALLS MT
900 AM MDT TUE AUG 23 2016

NOTE: "FAIR" INDICATES FEW OR NO CLOUDS BELOW 12000 FEET WITH NO
SIGNIFICANT WEATHER AND/OR OBSTRUCTIONS TO VISIBILITY.

MTZ001>007-043-231600-
WEST OF THE DIVIDE

CITY           SKY/WX    TMP DP  RH WIND       PRES   REMARKS
KALISPELL      SUNNY     57  39  51 NE10      30.08R
MISSOULA       MOSUNNY   53  34  48 E5        30.14R
BUTTE          SUNNY     47  27  45 CALM      30.18R
MULLAN PASS    MOSUNNY   45  31  58 NW3       30.16R
DEER LODGE       N/A     50  30  46 CALM      30.18R
EUREKA           N/A     55  39  54 CALM      30.10R
HAMILTON         N/A     52  34  50 S8        30.15R
LIBBY            N/A     52  36  54 CALM      30.10R
$$

MTZ008-052>055-231600-
SOUTHWEST MONTANA

CITY           SKY/WX    TMP DP  RH WIND       PRES   REMARKS
BOZEMAN        SUNNY     55  32  41 SW3       30.14R
DILLON         SUNNY     53  28  38 SW10      30.15R
W YELLOWSTONE  HAZE      45  18  33 CALM      30.19S VSB 1/2
ENNIS          SUNNY     55  21  26 N5        30.19R
THREE FORKS      N/A     57  12  17 CALM      30.11R
TWIN BRIDGES     N/A     53  26  35 W3        30.12R
$$

MTZ009-010-012-014-046-048-049-054-231600-
EAST SLOPES AND CENTRAL MONTANA

CITY           SKY/WX    TMP DP  RH WIND       PRES   REMARKS
CUT BANK       CLOUDY    54  40  59 N13       30.01R
GREAT FALLS    SUNNY     61  32  33 SW14      30.03R
MALMSTROM AFB  SUNNY     58  35  41 SW10      30.03R
HELENA         SUNNY     62  30  29 W14G23    30.10R
CHOTEAU          N/A     63  32  31 W14G20    30.04R
$$

MTZ011-013-016-021-045-047-050-051-231600-
NORTH CENTRAL MONTANA

CITY           SKY/WX    TMP DP  RH WIND       PRES   REMARKS
HAVRE          MOSUNNY   61  45  55 W22       29.94R
LEWISTOWN      MOSUNNY   56  32  40 W8        30.03R
N BAR RANCH      N/A     61  27  27 W16G23    30.04R
CHINOOK          N/A     59  45  58 W20       29.92R
$$

MTZ017>020-022>027-061-062-231600-
NORTHEAST MONTANA

CITY           SKY/WX    TMP DP  RH WIND       PRES   REMARKS
GLASGOW        CLOUDY    58  42  55 W15G22    29.90R
JORDAN           N/A     62  40  44 NW16      29.95R
SIDNEY         CLOUDY    70  36  28 NW16      29.84R
WOLF POINT     CLOUDY    62  39  42 SW7       29.88R
POPLAR           N/A     63  37  39 W10       29.87R
$$

MTZ028>42-056>058-231600-
SOUTHCENTRAL AND SOUTHEAST MONTANA

CITY           SKY/WX    TMP DP  RH WIND       PRES   REMARKS
BAKER          SUNNY     66  33  29 NW20      29.91R
BILLINGS       MOSUNNY   64  28  25 W7        30.03R
LIVINGSTON     SUNNY     60  27  28 NW8       30.10R
MILES CITY     MOSUNNY   66  31  27 NW10      29.95R
FORSYTH          N/A     61  36  39 W7        29.97R
LAUREL           N/A     61  35  37 S1        30.02R
ROUNDUP          N/A     58  30  34 S8        29.93S
$$

REGIONAL REPORTS...DAKOTAS

CITY           SKY/WX    TMP DP  RH WIND       PRES   REMARKS
WILLISTON      PTSUNNY   68  36  30 NW20G29   29.80R
MINOT          CLOUDY    68  54  60 W22G29    29.66R
DICKINSON      SUNNY     68  37  32 NW23G30   29.79R
CROSBY           N/A     59  45  58 NW14G21   29.80R
BISMARCK       PTSUNNY   71  67  87 NW16      29.64S
GRAND FORKS    MOSUNNY   76  64  66 S20       29.64R
FARGO          MOSUNNY   75  62  64 SE14      29.70S
BUFFALO SD       N/A     69  33  26 NW35G44   29.77R
RAPID CITY     SUNNY     72  35  25 NW33G45   29.83R
$$

REGIONAL REPORTS...WYOMING/IDAHO/WASHINGTON

CITY           SKY/WX    TMP DP  RH WIND       PRES   REMARKS
GILLETTE       SUNNY     64  29  26 N17       30.01R
SHERIDAN       MOSUNNY   65  32  29 W8        30.03R
BUFFALO WY     SUNNY     65  24  21 N14G24    30.06R
CODY           SUNNY     63  30  29 CALM      30.08S
YELLOWSTONE LA   N/A     53  17  24 VRB6      30.24S
IDAHO FALLS    MOSUNNY   61  29  29 SW17      30.11R
SALMON         SUNNY     52  34  50 NW3       30.17R
BOISE          SUNNY     57  32  38 CALM      30.12R
SPOKANE        MOSUNNY   58  40  51 W5        30.11R SMOKE
$$

REGIONAL REPORTS...ALBERTA

CITY           SKY/WX    TMP DP  RH WIND       PRES   REMARKS
EDMONTON       CLOUDY    54  52  94 N16G23    29.93R
CALGARY        LGT RAIN  54  46  76 NW30G44   29.97R
LETHBRIDGE     LGT RAIN  54  46  76 W23G29    29.98R
MEDICINE HAT   CLOUDY    59  50  72 W21G31    29.84S
WATERTON GATE    N/A     55  36  47 SW17G26     N/A
MILK RIVER       N/A     55  45  67 NW16        N/A
ONEFOUR          N/A     54  46  76 W28G36      N/A
$$

REGIONAL REPORTS...SASKATCHEWAN

CITY           SKY/WX    TMP DP  RH WIND       PRES   REMARKS
SWIFT CURRENT  PTSUNNY   54  46  76 W24G32    29.75R
REGINA         PTSUNNY   57  48  72 SW9       29.77S
SASKATOON      PTSUNNY   57  48  72 S9        29.68R
CYPRESS HILLS    N/A     48  43  81 W12G23      N/A
VAL MARIE        N/A     59  43  55 W21G26      N/A
ROCKGLEN         N/A     52  43  71 W15         N/A
$$




USA.gov is the U.S. government's official web portal to all federal, state and local government web resources and services.